Location: Fort Worth, Tx
(32.7431°N, 97.3695°W)
Time: 11:05:54
(UTC-05:00)

deb Explorer IX - Visible Passes

Search period start: 29 January 2023 00:00
Search period end: 08 February 2023 00:00
Orbit: 534 x 1049 km, 38.8° (Epoch: 29 January)

Date Brightness Start Highest point End Pass type
(mag) Time Alt. Az. Time Alt. Az. Time Alt. Az.
29 Jan ? 06:07:50 31° ESE 06:07:50 31° ESE 06:10:24 10° E visible
29 Jan ? 07:48:40 10° W 07:52:37 52° NNW 07:56:38 10° ENE visible
30 Jan ? 05:37:22 13° E 05:37:22 13° E 05:37:55 10° E visible
30 Jan ? 07:18:02 25° W 07:20:09 56° NNW 07:24:09 10° ENE visible
31 Jan ? 06:47:26 59° NW 06:47:42 61° NNW 06:51:41 10° ENE visible
01 Feb ? 06:16:44 36° NE 06:16:44 36° NE 06:19:14 10° ENE visible
02 Feb ? 05:45:56 16° ENE 05:45:56 16° ENE 05:46:46 10° ENE visible
02 Feb ? 07:26:37 18° WNW 07:29:05 35° N 07:32:48 10° ENE visible
03 Feb ? 06:55:45 32° NNW 06:56:31 36° N 07:00:15 10° ENE visible
04 Feb ? 06:24:50 33° NNE 06:24:50 33° NNE 06:27:44 10° ENE visible
05 Feb ? 05:53:53 19° NE 05:53:53 19° NE 05:55:12 10° ENE visible
05 Feb ? 07:34:32 13° WNW 07:37:55 39° N 07:41:43 10° E visible
06 Feb ? 07:03:34 25° NW 07:05:18 38° N 07:09:05 10° ENE visible
07 Feb ? 06:32:35 37° N 06:32:40 38° N 06:36:28 10° ENE visible
